Hourly Data Report for January 18, 2022

TERRACE A
BRITISH COLUMBIA
Current Station Operator: NAVCAN

54°28'07.000" N
128°34'42.000" W
217.30 m
1068134
71951
YXT

Download Data

Hourly Data (January 2022)
Hourly Data Report for January 18, 2022
TIME
LST
Temp Definition
°C
Dew Point Definition
°C
Rel Hum Definition
%
Precip. Amount Definition
mm

Wind Dir Definition
10's deg

Wind Spd Definition
km/h
Visibility Definition
km
Stn Press Definition
kPa
Hmdx Definition


Wind Chill Definition


Weather Definition


00:00 -0.6 -2.1 90 LegendMM 36 25 32.2 99.17   -7 LegendNANA
01:00 -0.4 -2.4 86 LegendMM 36 24 32.2 99.18   -6 Clear
02:00 -0.8 -2.4 89 LegendMM 35 27 32.2 99.25   -7 LegendNANA
03:00 -0.8 -2.7 87 LegendMM 35 27 32.2 99.33   -7 LegendNANA
04:00 -0.9 -2.8 87 LegendMM 35 27 32.2 99.27   -7 Mainly Clear
05:00 -1.5 -3.5 86 LegendMM 35 25 32.2 99.36   -8 LegendNANA
06:00 -1.3 -3.2 87 LegendMM 36 26 32.2 99.37   -8 LegendNANA
07:00 -1.4 -3.9 83 LegendMM 36 23 32.2 99.38   -7 Mainly Clear
08:00 -1.3 -3.8 83 LegendMM 35 27 32.2 99.40   -8 LegendNANA
09:00 -1.2 -4.0 81 LegendMM 35 28 32.2 99.40   -8 LegendNANA
10:00 -1.0 -4.0 80 LegendMM 35 28 32.2 99.44   -8 Mostly Cloudy
11:00 -0.7 -4.0 78 LegendMM 35 28 32.2 99.50   -7 LegendNANA
12:00 -0.3 -4.1 76 LegendMM 36 24 32.2 99.48   -6 LegendNANA
13:00 -0.2 -4.1 75 LegendMM 35 24 32.2 99.47   -6 Mostly Cloudy
14:00 0.5 -4.8 68 LegendMM 36 27 32.2 99.48     LegendNANA
15:00 0.5 -4.6 69 LegendMM 36 24 32.2 99.50     LegendNANA
16:00 -0.2 -4.7 72 LegendMM 36 25 32.2 99.52   -6 Mostly Cloudy
17:00 -0.6 -4.7 74 LegendMM 35 27 LegendMM 99.51   -7 LegendNANA
18:00 -0.8 -4.7 75 LegendMM 35 28 32.2 99.53   -7 LegendNANA
19:00 -1.0 -4.8 76 LegendMM 36 23 32.2 99.50   -7 Mostly Cloudy
20:00 -1.0 -4.9 75 LegendMM 2 16 32.2 99.52   -6 LegendNANA
21:00 -2.9 -4.0 92 LegendMM 5 7 32.2 99.56   -6 LegendNANA
22:00 -3.6 -4.3 95 LegendMM 14 8 32.2 99.58   -7 Mostly Cloudy
23:00 -3.4 -3.7 98 LegendMM 11 4 32.2 99.60   -5 LegendNANA

Notes on Data Quality.

Legend

  • E = Estimated
  • M = Missing
  • NA = Not Available*
  • [empty] = Indicates an unobserved value
Date modified: